Weather in Liupanshui

China     26°35′39″N   104°50′09″E
temp.,
°C
wind,
m/s
gust,
m/s
humid.,
%
clouds,
%
prec.,
mm/h
press.,
hPa
HPBL,
m
11 may, tue
tue1123:00+17sw22680 0.0 100414
02:00+15sw11700 0.0 100411
05:00+14nne11810 0.0 100611
08:00+16ene228413 0.1 1007254
11:00+18ene327078 1.4 1008844
14:00+20ene326590 3.8 1006929
17:00+20e336574 2.4 1004710
20:00+16ene238564 6.9 100684
12 may, wed
wed1223:00+15ne3394100 3.8 1008197
02:00+14e229520 4.8 100785
05:00+14e119354 0.1 100793
08:00+15sse238973 0.1 1008343
11:00+19s267063 0.3 1006979
14:00+23sse4753100 0.5 10021081
17:00+23se4657100 0.0 1000543
20:00+19se23739 0.2 100237
13 may, thu
thu1323:00+16s338386 0.1 100538
02:00+15ssw2278100 0.1 100512
05:00+14ssw1174100 0.0 100511
08:00+17sw1269100 0.0 1006145
11:00+22ssw475540 0.2 10041475
14:00+23s51052100 0.5 10011762
17:00+23ssw7105143 0.1 9991575
20:00+18ssw35683 0.1 100179
14 may, fri
fri1423:00+16s22700 0.0 100314
02:00+15ssw22760 0.0 100320
05:00+13ssw33820 0.0 100239
08:00+16ssw49730 0.0 1002427
11:00+23sw811471 0.0 10001732
14:00+26sw1013352 0.0 9962543
17:00+27ssw9143497 0.0 9942748
20:00+21ssw494941 0.0 997146
15 may, sat
sat1523:00+19ssw410550 0.0 1000231
02:00+16ssw347310 0.0 100178
05:00+14sw22781 0.0 100226
08:00+18sw39670 0.0 1002453
11:00+23sw79430 0.0 10011604
14:00+27ssw9123113 0.0 9972925
17:00+28sw9143187 0.0 9952307
20:00+22sw715415 0.0 999435